Regional Weather Roundup
Issued by NWS Wakefield, VA

Home | Current Version | Previous Version | Graphics & Text | Print | Product List | Glossary On
Versions: 1 2 3 4 5 6 7 8 9 10 11 12 13 14 15 16 17 18 19 20 21 22 23 24 25 26 27 28 29 30 31 32 33 34 35 36 37 38 39 40 41 42 43 44 45 46 47 48 49 50
000
ASUS41 KAKQ 060015
RWRAKQ

REGIONAL WEATHER ROUNDUP
NATIONAL WEATHER SERVICE WAKEFIELD VA
700 PM EST MON DEC 05 2016

Note: "fair" indicates few or no clouds below 12,000 feet with no
significant weather and/or obstructions to visibility. * = Denotes
station may not report precipitation (e.g., rain,snow,etc.),
thunder or fog.

VAZ042-051-052>054-056-060100-
NORTHERN VIRGINIA

CITY           SKY/WX    TMP DP  RH WIND       PRES   REMARKS
WASH NATIONAL  CLOUDY    50  36  58 N6        30.08R
DULLES         CLOUDY    48  32  53 N7        30.08R
FORT BELVOIR   MOCLDY    46  37  71 VRB3      30.07R
QUANTICO       CLOUDY    45  40  82 NW3       30.08R
FREDERICKSBRG* PTCLDY    42  42  99 CALM      30.06R
STAFFORD*      CLOUDY    40  39  96 CALM      30.10S
WARRENTON      CLOUDY    41  35  80 CALM      30.06R
CULPEPER*      CLOUDY    42  40  93 CALM      30.08R
MANASSAS*      CLEAR     43  37  81 CALM      30.07
LEESBURG*      CLOUDY    48  36  61 N3        30.08R
WINCHESTER     CLOUDY    43  30  61 CALM      30.08R
FRONT ROYAL*   FAIR      45  32  61 CALM      30.06R
LURAY*         FAIR      45  34  65 NE5       30.06R
$$

VAZ048-049-060>072-079>083-060100-
CENTRAL AND SOUTH CENTRAL VIRGINIA

CITY           SKY/WX    TMP DP  RH WIND       PRES   REMARKS
RICHMOND       CLOUDY    43  41  93 CALM      30.08R
CHESTERFIELD*  FAIR      45  28  53 CALM      30.10R
PETERSBURG*    CLOUDY    41  40  96 CALM      30.09R
HANOVER        PTCLDY    40  39  97 CALM      30.09R
TAPPAHANNOCK*  PTCLDY    40  40 100 CALM      30.06R
QUINTON*       FAIR      42  42  99 MISG      30.06R
CHARLOTTSVILLE PTCLDY    50  41  71 CALM      30.07R
GORDONSVILLE*  FAIR      42  41  97 CALM      30.07R
ORANGE*          N/A     43  43 100 CALM      30.09R
LOUISA*        CLOUDY    45  43  93 CALM      30.06R
BUMPASS*       FAIR      41  41 100 CALM      30.07R
FARMVILLE*     CLOUDY    45  44  97 CALM      30.06R
CREWE*         FAIR      44  44 100 CALM      30.07R
FORT PICKETT*  FAIR      46  42  88 W6        30.07R
CHASE CITY*    FAIR      49  41  74 CALM      30.06R
CLARKSVILLE*   FAIR      50  43  76 CALM      30.06R
SOUTH HILL*    PTCLDY    45  45  97 CALM      30.11S
LAWRENCEVILLE* FAIR      46  44  93 CALM      30.07R
EMPORIA*       PTCLDY    43  43 100 CALM      30.09R
$$

VAZ088>098-060100-
SOUTHEAST VIRGINIA

CITY           SKY/WX    TMP DP  RH WIND       PRES   REMARKS
NORFOLK        PTCLDY    50  42  74 N13       30.06R
VIRGINIA BEACH MOCLDY    47  39  74 N7        30.05R
NORFOLK NAVAL  CLOUDY    49  42  77 N10       30.08R
WEST POINT*    PTCLDY    39  38  94 CALM      30.08R
SALUDA*        FAIR      40  40 100 CALM      30.06R
NEWPORT NEWS   PTCLDY    43  41  93 CALM      30.07R
LANGLEY AFB    CLOUDY    46  42  87 N5        30.06R
FORT EUSTIS    CLOUDY    46  39  76 CALM      30.05R
WILLIAMSBURG*  PTCLDY    45  43  93 CALM      30.08R
HR EXEC AP*    FAIR      39  37  93 CALM      30.06R
FRANKLIN*      MOCLDY    44  41  92 CALM      30.09R
US460-WAKEFLD  CLOUDY    42  41  96 CALM      30.08R
$$

VAZ020-022-025-037-045-060100-
WEST CENTRAL AND SOUTHWEST VIRGINIA

CITY           SKY/WX    TMP DP  RH WIND       PRES   REMARKS
STAUNTON*      PTCLDY    43  34  70 CALM      30.08R
WAYNESBORO*    FAIR      46  33  60 CALM      30.05R
HOT SPRINGS VA CLOUDY    41  27  56 E5        30.01R
LYNCHBURG      PTCLDY    45  42  89 CALM      30.06R
DANVILLE       CLOUDY    46  45  96 E3        30.05R
SOUTH BOSTON*  FAIR      47  44  87 CALM      30.06R
MARTINSVILLE   CLOUDY    49  44  81 CALM      30.06S
ROANOKE        CLOUDY    50  37  61 NE5       30.06R
BLACKSBURG     CLOUDY    45  39  82 CALM      30.06R
DUBLIN*        CLOUDY    46  38  71 CALM      30.04R
MARION*        CLOUDY    49  39  69 E7        30.01F
HILLSVILLE*    LGT RAIN  45  40  83 CALM      30.00S
RICHLANDS*     FAIR      44  21  39 NE7       29.95F
WISE*          CLOUDY    43  37  81 CALM      29.96F
ABINGDON*      MOCLDY    50  41  69 NE8       29.95F
$$

MDZ021>025-VAZ099-100-060100-
SOUTHERN MARYLAND AND THE DELMARVA PENINSULA

CITY           SKY/WX    TMP DP  RH WIND       PRES   REMARKS
PATUXENT RIVER MOCLDY    41  38  89 W3        30.06R
BAY BRIDGE APT PTCLDY    43  39  87 CALM      30.08R
LEONARDTOWN    CLOUDY    41  37  87 CALM      30.08R
DOVER          PTCLDY    42  39  90 CALM      30.06R
GEORGETOWN     PTCLDY    46  39  76 N5        30.08R
EASTON         CLEAR     45  37  76 CALM      30.11R
CAMBRIDGE      CLOUDY    37  36  93 N5        30.06R
SALISBURY      PTCLDY    38  37  97 N5        30.06R
OCEAN CITY     CLOUDY    39  36  89 N7        30.07R
WALLOPS ISLAND PTCLDY    42  41  96 N3        30.06R
ACCOMACK*        N/A     40  40  98 CALM      30.05S FOG
$$

NCZ012>017-030>032-060100-
NORTH CENTRAL AND EASTERN NORTH CAROLINA

CITY           SKY/WX    TMP DP  RH WIND       PRES   REMARKS
ROANOKE RAPIDS FAIR      45  45 100 NE3       30.06R
RALEIGH        MOCLDY    52  43  71 NE6       30.04R
ELIZABETH CITY CLOUDY    48  41  76 N6        30.08R
AHOSKIE*       CLOUDY    46  43  91 CALM      30.07R
EDENTON*       CLOUDY    49  43  80 CALM      30.07R
CURRITUCK*     CLOUDY    49  42  77 N5        30.07R
KILL DEVIL HLS CLOUDY    51  45  80 N5        30.04R
MANTEO         CLOUDY    50  44  80 NE10      30.06R
CAPE HATTERAS  CLOUDY    52  46  80 NE7G17    30.04R
TARBORO*       NOT AVBL
GOLDSBORO      CLOUDY    53  49  87 NE6       30.01S
WASHINGTON     PTCLDY    48  46  90 CALM      30.06R
GREENVILLE     CLOUDY    52  46  82 NE3       30.07R
NEW BERN       PTCLDY    50  47  89 NE6       30.04S
WILMINGTON     CLOUDY    54  49  83 NE6       30.03R
$$

VAZ048-060100-
ELSEWHERE

CITY           SKY/WX    TMP DP  RH WIND       PRES   REMARKS
HARRISBURG PA  CLOUDY    41  31  67 NW8       30.09R
BALTIMORE      CLOUDY    44  35  70 NW3       30.07R
ANNAPOLIS      PTCLDY    48  41  76 NW3       30.07R
ANDREWS AFB    CLOUDY    43  36  76 N1        30.06R
PHILADELPHIA   MOCLDY    45  34  65 W7        30.08R
HENDERSON NC   MOCLDY    45  42  89 CALM      30.05R
GREENSBORO     CLOUDY    52  43  71 E7        30.02S
ROCKY MOUNT    PTCLDY    51  45  79 NE6       30.05R
$$

VAZ100-060100-
MARINE

STATION/POSITION TIME  TEMP    WIND        PRES    WAVE   SWELL
                       AIR SEA DIR/SP/G            HT/PER HT/PER
                 (UTC) (F)     (DEG/KT/KT) (MB)    (FT/S) (FT/S)
BRANDYWINE LGT   2342   48      10/ 18/ 19   N/A
CAPE MAY NJ      2342   47 48  360/  6/ 10 1017.6R
LEWES DE         2342   49 49   10/ 10/ 12 1018.0R
OCEAN-CITY-INLET 2342   47 51   10/  7/  9 1018.3R
WACHAPREAGUE VA  2342   43 49   CALM  /  2 1017.5R
THOMAS POINT MD  0000   49 49   CALM  /  1   N/A
GOOSES REEF MD   2350   50      40/  6/  8 1018.7R
COVE POINT MD    2342   48     360/  3/  9 1018.5R
SOLOMONS ISLAND  2342   45 51  300/  1/  2   N/A
BISHOPS HEAD MD  2342   47 47  340/  5/  5 1017.9R
PINEY POINT MD   2342          150/  1/  2   N/A
POTOMAC MD       2350   48     360/  4/  4 1016.9R
CAMBRIDGE MD     2342   46 47  310/  4/  4 1017.3R
LEWISETTA VA     2342   46 49  300/  3/  3 1017.5R
RAPPAHANNOCK LGT 2342          340/  8/  9 1018.1R
STINGRAY PT      2350   50      30/  8/ 10 1018.1R
YORK RVR RNG VA  2342   49      40/ 10/ 11 1017.2R
YORKTOWN VA      2342   48 52   30/  6/  7 1017.3R
JAMESTOWN VA     2350   48      CALM  /  2   N/A
DOMINION TERM VA 2342   48      20/  5/  8 1017.9R
KIPTOPEKE VA     2342      52   10/  6/  8   N/A
CHES BAY BRIDGE  2342   51 55   30/ 19/ 21 1017.1R
CAPE HENRY VA    2342   50      10/ 15/ 18   N/A
WILLOUBY STN VA  2342   49      10/ 10/ 12 1018.4R
S CRANEY ISL VA  2342   50      20/  8/ 12 1017.1R
CAPE HENRY BUOY  2342      56                N/A     4/ 8
1ST LANDING BUOY 2350   51                 1017.9R
CAPE CHARLES BUO 2356      55                N/A     3/ 8
OFFSHORE WE BUOY 2351      57                N/A     4/ 8
64NM E OF VA BCH 2350   54 60   20/ 19/ 23 1016.1R   6/ 6
DUCK PIER NC     2342   52 54   10/ 12/ 15 1016.9R
44100 DUCK FRF   2335      56                N/A     5/ 5
OREGON INLET NC  2342   52 56   10/  9/ 13 1017.6R
HATTERAS NC      2342   53 60   10/ 16/ 20 1016.9R
DIAMOND SHLS NC  2350   57 71   20/ 17/ 21 1016.6R   5/ 8   2/ 8
CAPE LOOKOUT NC  2300   56      30/ 15/ 16 1016.4R
$$



USA.gov is the U.S. government's official web portal to all federal, state and local government web resources and services.